Time,TemperatureF,DewpointF,PressureIn,WindDirection,WindDirectionDegrees,WindSpeedMPH,WindSpeedGustMPH,Humidity,HourlyPrecipIn,Conditions,Clouds,dailyrainin,SolarRadiationWatts/m^2,SoftwareType,DateUTC
2013-10-04 00:25:00,41.0,40.0,-100.00,SSE,160,0.0,2.0,97,0.00,,,0.00,0.000000,,2013-10-04 04:25:00,
2013-10-04 01:18:00,41.0,40.0,-100.00,SSE,160,0.0,2.0,97,0.00,,,0.00,0.000000,,2013-10-04 05:18:00,
2013-10-04 01:25:00,40.0,39.0,-100.00,SE,124,1.0,2.0,98,0.00,,,0.00,0.000000,,2013-10-04 05:25:00,
2013-10-04 02:00:00,40.0,39.0,-100.00,SE,124,1.0,2.0,98,0.00,,,0.00,0.000000,,2013-10-04 06:00:00,
2013-10-04 02:10:00,40.0,39.0,-100.00,SE,124,1.0,2.0,98,0.00,,,0.00,0.000000,,2013-10-04 06:10:00,
2013-10-04 02:20:00,40.0,39.0,-100.00,SE,124,1.0,2.0,98,0.00,,,0.00,0.000000,,2013-10-04 06:20:00,
2013-10-04 02:25:00,38.0,37.0,-100.00,South,190,1.0,3.0,98,0.00,,,0.00,0.000000,,2013-10-04 06:25:00,
2013-10-04 02:59:00,38.0,37.0,-100.00,South,190,1.0,3.0,98,0.00,,,0.00,0.000000,,2013-10-04 06:59:00,
2013-10-04 03:09:00,38.0,37.0,-100.00,South,190,1.0,3.0,98,0.00,,,0.00,0.000000,,2013-10-04 07:09:00,
2013-10-04 03:19:00,38.0,37.0,-100.00,South,190,1.0,3.0,98,0.00,,,0.00,0.000000,,2013-10-04 07:19:00,
2013-10-04 03:25:00,39.0,38.0,-100.00,East,99,1.0,2.0,98,0.00,,,0.00,0.000000,,2013-10-04 07:25:00,
2013-10-04 03:59:00,39.0,38.0,-100.00,East,99,1.0,2.0,98,0.00,,,0.00,0.000000,,2013-10-04 07:59:00,
2013-10-04 04:09:00,39.0,38.0,-100.00,East,99,1.0,2.0,98,0.00,,,0.00,0.000000,,2013-10-04 08:09:00,
2013-10-04 04:18:00,39.0,38.0,-100.00,East,99,1.0,2.0,98,0.00,,,0.00,0.000000,,2013-10-04 08:18:00,
2013-10-04 04:25:00,38.0,37.0,-100.00,SE,129,1.0,2.0,98,0.00,,,0.00,0.000000,,2013-10-04 08:25:00,
2013-10-04 04:59:00,38.0,37.0,-100.00,SE,129,1.0,2.0,98,0.00,,,0.00,0.000000,,2013-10-04 08:59:00,
2013-10-04 05:09:00,38.0,37.0,-100.00,SE,129,1.0,2.0,98,0.00,,,0.00,0.000000,,2013-10-04 09:09:00,
2013-10-04 05:18:00,38.0,37.0,-100.00,SE,129,1.0,2.0,98,0.00,,,0.00,0.000000,,2013-10-04 09:18:00,
2013-10-04 05:25:00,37.0,36.0,-100.00,WSW,239,0.0,2.0,98,0.00,,,0.00,0.000000,,2013-10-04 09:25:00,
2013-10-04 06:02:00,37.0,36.0,-100.00,WSW,239,0.0,2.0,98,0.00,,,0.00,0.000000,,2013-10-04 10:02:00,
2013-10-04 06:12:00,37.0,36.0,-100.00,WSW,239,0.0,2.0,98,0.00,,,0.00,0.000000,,2013-10-04 10:12:00,
2013-10-04 06:22:00,37.0,36.0,-100.00,WSW,239,0.0,2.0,98,0.00,,,0.00,0.000000,,2013-10-04 10:22:00,
2013-10-04 06:25:00,38.0,38.0,-100.00,ESE,107,1.0,2.0,99,0.00,,,0.00,0.000000,,2013-10-04 10:25:00,
2013-10-04 07:02:00,38.0,38.0,-100.00,ESE,107,1.0,2.0,99,0.00,,,0.00,0.000000,,2013-10-04 11:02:00,
2013-10-04 07:12:00,38.0,38.0,-100.00,ESE,107,1.0,2.0,99,0.00,,,0.00,0.000000,,2013-10-04 11:12:00,
2013-10-04 07:21:00,38.0,38.0,-100.00,ESE,107,1.0,2.0,99,0.00,,,0.00,0.000000,,2013-10-04 11:21:00,
2013-10-04 07:25:00,39.0,39.0,-100.00,SSE,150,0.0,2.0,99,0.00,,,0.00,8.000000,,2013-10-04 11:25:00,
2013-10-04 08:02:00,39.0,39.0,-100.00,SSE,150,0.0,2.0,99,0.00,,,0.00,8.000000,,2013-10-04 12:02:00,
2013-10-04 08:11:00,39.0,39.0,-100.00,SSE,150,0.0,2.0,99,0.00,,,0.00,8.000000,,2013-10-04 12:11:00,
2013-10-04 08:21:00,39.0,39.0,-100.00,SSE,150,0.0,2.0,99,0.00,,,0.00,8.000000,,2013-10-04 12:21:00,
2013-10-04 08:25:00,40.0,39.0,-100.00,East,100,0.0,2.0,98,0.00,,,0.00,56.000000,,2013-10-04 12:25:00,
2013-10-04 09:01:00,40.0,39.0,-100.00,East,100,0.0,2.0,98,0.00,,,0.00,56.000000,,2013-10-04 13:01:00,
2013-10-04 09:12:00,40.0,39.0,-100.00,East,100,0.0,2.0,98,0.00,,,0.00,56.000000,,2013-10-04 13:12:00,
2013-10-04 09:21:00,40.0,39.0,-100.00,East,100,0.0,2.0,98,0.00,,,0.00,56.000000,,2013-10-04 13:21:00,
2013-10-04 09:25:00,46.0,44.0,-100.00,North,2,0.0,3.0,91,0.00,,,0.00,145.000000,,2013-10-04 13:25:00,
2013-10-04 10:01:00,46.0,44.0,-100.00,North,2,0.0,3.0,91,0.00,,,0.00,145.000000,,2013-10-04 14:01:00,
2013-10-04 10:11:00,46.0,44.0,-100.00,North,2,0.0,3.0,91,0.00,,,0.00,145.000000,,2013-10-04 14:11:00,
2013-10-04 10:20:00,46.0,44.0,-100.00,North,2,0.0,3.0,91,0.00,,,0.00,145.000000,,2013-10-04 14:20:00,
2013-10-04 10:25:00,57.0,48.0,-100.00,West,280,2.0,4.0,72,0.00,,,0.00,299.000000,,2013-10-04 14:25:00,
2013-10-04 11:02:00,57.0,48.0,-100.00,West,280,2.0,4.0,72,0.00,,,0.00,299.000000,,2013-10-04 15:02:00,
2013-10-04 11:12:00,57.0,48.0,-100.00,West,280,2.0,4.0,72,0.00,,,0.00,299.000000,,2013-10-04 15:12:00,
2013-10-04 11:21:00,57.0,48.0,-100.00,West,280,2.0,4.0,72,0.00,,,0.00,299.000000,,2013-10-04 15:21:00,
2013-10-04 11:25:00,60.0,47.0,-100.00,WSW,252,1.0,4.0,63,0.00,,,0.00,250.000000,,2013-10-04 15:25:00,
2013-10-04 12:02:00,60.0,47.0,-100.00,WSW,252,1.0,4.0,63,0.00,,,0.00,250.000000,,2013-10-04 16:02:00,
2013-10-04 12:12:00,60.0,47.0,-100.00,WSW,252,1.0,4.0,63,0.00,,,0.00,250.000000,,2013-10-04 16:12:00,
2013-10-04 12:22:00,60.0,47.0,-100.00,WSW,252,1.0,4.0,63,0.00,,,0.00,250.000000,,2013-10-04 16:22:00,
2013-10-04 12:25:00,62.0,45.0,-100.00,WNW,298,2.0,3.0,54,0.00,,,0.00,201.000000,,2013-10-04 16:25:00,
2013-10-04 13:02:00,62.0,45.0,-100.00,WNW,298,2.0,3.0,54,0.00,,,0.00,201.000000,,2013-10-04 17:02:00,
2013-10-04 13:12:00,62.0,45.0,-100.00,WNW,298,2.0,3.0,54,0.00,,,0.00,201.000000,,2013-10-04 17:12:00,
2013-10-04 13:22:00,62.0,45.0,-100.00,WNW,298,2.0,3.0,54,0.00,,,0.00,201.000000,,2013-10-04 17:22:00,
2013-10-04 13:25:00,63.0,44.0,-100.00,WNW,285,2.0,4.0,50,0.00,,,0.00,237.000000,,2013-10-04 17:25:00,
2013-10-04 14:05:00,63.0,44.0,-100.00,WNW,285,2.0,4.0,50,0.00,,,0.00,237.000000,,2013-10-04 18:05:00,
2013-10-04 14:15:00,63.0,44.0,-100.00,WNW,285,2.0,4.0,50,0.00,,,0.00,237.000000,,2013-10-04 18:15:00,
2013-10-04 14:56:00,65.0,45.0,-100.00,NNW,336,2.0,5.0,49,0.00,,,0.00,318.000000,,2013-10-04 18:56:00,
2013-10-04 15:02:00,65.0,45.0,-100.00,NNW,336,2.0,5.0,49,0.00,,,0.00,318.000000,,2013-10-04 19:02:00,
2013-10-04 15:12:00,65.0,45.0,-100.00,NNW,336,2.0,5.0,49,0.00,,,0.00,318.000000,,2013-10-04 19:12:00,
2013-10-04 15:22:00,65.0,45.0,-100.00,NNW,336,2.0,5.0,49,0.00,,,0.00,318.000000,,2013-10-04 19:22:00,
2013-10-04 15:53:00,66.0,46.0,-100.00,NNW,337,2.0,6.0,48,0.00,,,0.00,289.000000,,2013-10-04 19:53:00,
2013-10-04 16:02:00,66.0,46.0,-100.00,NNW,337,2.0,6.0,48,0.00,,,0.00,289.000000,,2013-10-04 20:02:00,
2013-10-04 16:11:00,66.0,46.0,-100.00,NNW,337,2.0,6.0,48,0.00,,,0.00,289.000000,,2013-10-04 20:11:00,
2013-10-04 16:22:00,66.0,46.0,-100.00,NNW,337,2.0,6.0,48,0.00,,,0.00,289.000000,,2013-10-04 20:22:00,
2013-10-04 16:53:00,63.0,46.0,-100.00,West,278,3.0,5.0,53,0.00,,,0.00,143.000000,,2013-10-04 20:53:00,
2013-10-04 17:01:00,63.0,46.0,-100.00,West,278,3.0,5.0,53,0.00,,,0.00,143.000000,,2013-10-04 21:01:00,
2013-10-04 17:12:00,63.0,46.0,-100.00,West,278,3.0,5.0,53,0.00,,,0.00,143.000000,,2013-10-04 21:12:00,
2013-10-04 17:22:00,63.0,46.0,-100.00,West,278,3.0,5.0,53,0.00,,,0.00,143.000000,,2013-10-04 21:22:00,
2013-10-04 17:54:00,61.0,48.0,-100.00,WSW,250,2.0,5.0,63,0.00,,,0.00,77.000000,,2013-10-04 21:54:00,
2013-10-04 18:03:00,61.0,48.0,-100.00,WSW,250,2.0,5.0,63,0.00,,,0.00,77.000000,,2013-10-04 22:03:00,
2013-10-04 18:12:00,61.0,48.0,-100.00,WSW,250,2.0,5.0,63,0.00,,,0.00,77.000000,,2013-10-04 22:12:00,
2013-10-04 18:23:00,61.0,48.0,-100.00,WSW,250,2.0,5.0,63,0.00,,,0.00,77.000000,,2013-10-04 22:23:00,
2013-10-04 18:53:00,57.0,47.0,-100.00,ESE,102,1.0,4.0,68,0.00,,,0.00,20.000000,,2013-10-04 22:53:00,
2013-10-04 19:03:00,57.0,47.0,-100.00,ESE,102,1.0,4.0,68,0.00,,,0.00,20.000000,,2013-10-04 23:03:00,
2013-10-04 19:12:00,57.0,47.0,-100.00,ESE,102,1.0,4.0,68,0.00,,,0.00,20.000000,,2013-10-04 23:12:00,
2013-10-04 19:22:00,57.0,47.0,-100.00,ESE,102,1.0,4.0,68,0.00,,,0.00,20.000000,,2013-10-04 23:22:00,
2013-10-04 19:53:00,52.0,45.0,-100.00,SE,126,2.0,3.0,78,0.00,,,0.00,0.000000,,2013-10-04 23:53:00,
2013-10-04 20:02:00,52.0,45.0,-100.00,SE,126,2.0,3.0,78,0.00,,,0.00,0.000000,,2013-10-05 00:02:00,
2013-10-04 20:12:00,52.0,45.0,-100.00,SE,126,2.0,3.0,78,0.00,,,0.00,0.000000,,2013-10-05 00:12:00,
2013-10-04 20:23:00,52.0,45.0,-100.00,SE,126,2.0,3.0,78,0.00,,,0.00,0.000000,,2013-10-05 00:23:00,
2013-10-04 20:53:00,52.0,46.0,-100.00,SE,129,1.0,3.0,80,0.00,,,0.00,0.000000,,2013-10-05 00:53:00,
2013-10-04 21:02:00,52.0,46.0,-100.00,SE,129,1.0,3.0,80,0.00,,,0.00,0.000000,,2013-10-05 01:02:00,
2013-10-04 21:11:00,52.0,46.0,-100.00,SE,129,1.0,3.0,80,0.00,,,0.00,0.000000,,2013-10-05 01:11:00,
2013-10-04 21:22:00,52.0,46.0,-100.00,SE,129,1.0,3.0,80,0.00,,,0.00,0.000000,,2013-10-05 01:22:00,
2013-10-04 21:52:00,52.0,46.0,-100.00,SE,131,1.0,2.0,80,0.00,,,0.00,0.000000,,2013-10-05 01:52:00,
2013-10-04 22:03:00,52.0,46.0,-100.00,SE,131,1.0,2.0,80,0.00,,,0.00,0.000000,,2013-10-05 02:03:00,
2013-10-04 22:11:00,52.0,46.0,-100.00,SE,131,1.0,2.0,80,0.00,,,0.00,0.000000,,2013-10-05 02:11:00,
2013-10-04 22:22:00,52.0,46.0,-100.00,SE,131,1.0,2.0,80,0.00,,,0.00,0.000000,,2013-10-05 02:22:00,
2013-10-04 22:52:00,51.0,45.0,-100.00,SSE,154,1.0,3.0,79,0.00,,,0.00,0.000000,,2013-10-05 02:52:00,
2013-10-04 23:03:00,51.0,45.0,-100.00,SSE,154,1.0,3.0,79,0.00,,,0.00,0.000000,,2013-10-05 03:03:00,
2013-10-04 23:12:00,51.0,45.0,-100.00,SSE,154,1.0,3.0,79,0.00,,,0.00,0.000000,,2013-10-05 03:12:00,
2013-10-04 23:23:00,51.0,45.0,-100.00,SSE,154,1.0,3.0,79,0.00,,,0.00,0.000000,,2013-10-05 03:23:00,
2013-10-04 23:55:00,50.0,44.0,-100.00,SE,135,1.0,3.0,81,0.00,,,0.00,0.000000,,2013-10-05 03:55:00,